Date String (YYYY-MM-DD hh:mm:ss) UTC,Instrument flags,absolute air pressure of the measurement (hPa),sample flow rate (lpm),inlet stack bypass flow (lpm),air temperature of the measurement (°C),ambient temperature measured by the external sensor (°C),aerosol sample conditioner tube jacket temperature (°C),OPC LED temperature (°C),internal box temperature (°C),relative humidity of the measurement (%),span deviation,mass concentration of particles derived from Lorenz-Mie calculation of OPC scattering (μg/m³),mass concentration of particles derived from Lorenz-Mie calculation of OPC scattering (μg/m³),mass concentration of particles derived from Lorenz-Mie calculation of OPC scattering (μg/m³)
DateTimeUTC,F1_M11,P_M11,Q1_M11,Q2_M11,T1_M11,T2_M11,T3_M11,T4_M11,T5_M11,U1_M11,ZSPAN_M11,X0_M11,X2_M11,X1_M11
2023-08-22 17:00:00,SystemResetWarning,0836.8,4.99,000.00,027.4,024.5,000.0,035.5,028.9,24.8,0001.5,0022.49,0008.85,0007.11
2023-08-22 17:01:00,SystemResetWarning,0836.8,5.02,000.00,027.4,024.1,000.0,035.5,028.8,25.0,0001.6,0023.63,0008.85,0007.11
2023-08-22 17:02:00,SystemResetWarning,0836.8,5.00,000.00,027.3,024.5,000.0,035.5,028.9,24.9,0001.8,0023.42,0008.90,0007.12
2023-08-22 17:03:00,SystemResetWarning,0836.8,5.00,000.00,027.3,024.9,000.0,035.6,029.0,25.2,0001.5,0022.73,0008.84,0007.11
2023-08-22 17:04:00,SystemResetWarning,0836.8,5.00,000.00,027.4,025.3,000.0,035.6,029.1,25.0,0001.5,0020.97,0008.78,0007.12
2023-08-22 17:05:00,SystemResetWarning,0836.8,4.99,000.00,027.4,025.7,000.0,035.6,029.2,25.3,0001.7,0020.21,0008.79,0007.10
2023-08-22 17:06:00,SystemResetWarning,0836.8,5.00,000.00,027.5,026.0,000.0,035.7,029.3,25.2,0002.0,0020.63,0008.77,0007.07
2023-08-22 17:07:00,SystemResetWarning,0836.8,4.98,000.00,027.5,025.3,000.0,035.6,029.2,24.7,0001.7,0020.57,0008.74,0007.05
2023-08-22 17:08:00,SystemResetWarning,0836.8,5.01,000.00,027.4,024.3,000.0,035.5,028.9,24.8,0001.8,0020.62,0008.68,0007.03
2023-08-22 17:09:00,SystemResetWarning,0836.8,5.01,000.00,027.4,024.5,000.0,035.5,028.9,25.0,0001.9,0018.90,0008.70,0007.01
2023-08-22 17:10:00,SystemResetWarning,0836.8,5.00,000.00,027.4,024.8,000.0,035.6,029.0,25.3,0001.8,0018.73,0008.72,0007.01
2023-08-22 17:11:00,SystemResetWarning,0836.8,5.00,000.00,027.4,025.2,000.0,035.6,029.1,24.9,0001.5,0019.37,0008.71,0006.99
2023-08-22 17:12:00,SystemResetWarning,0836.8,5.00,000.00,027.4,025.7,000.0,035.7,029.2,25.0,0001.4,0019.19,0008.74,0007.00
2023-08-22 17:13:00,SystemResetWarning,0836.8,5.00,000.00,027.5,026.0,000.0,035.7,029.3,25.4,0001.3,0018.65,0008.70,0007.01
2023-08-22 17:14:00,SystemResetWarning,0836.7,4.98,000.00,027.5,025.1,000.0,035.6,029.1,25.5,0001.5,0018.59,0008.64,0007.00
2023-08-22 17:15:00,SystemResetWarning,0836.7,5.01,000.00,027.4,024.2,000.0,035.5,028.9,25.0,0001.8,0019.61,0008.68,0007.01
2023-08-22 17:16:00,SystemResetWarning,0836.7,5.01,000.00,027.4,024.5,000.0,035.5,028.9,25.1,0001.6,0019.90,0008.66,0007.01
2023-08-22 17:17:00,SystemResetWarning,0836.7,5.00,000.00,027.4,024.8,000.0,035.6,028.9,25.5,0001.4,0019.90,0008.63,0007.02
2023-08-22 17:18:00,SystemResetWarning,0836.7,5.00,000.00,027.4,025.2,000.0,035.6,029.1,25.5,0001.5,0021.03,0008.66,0007.04
2023-08-22 17:19:00,SystemResetWarning,0836.7,5.00,000.00,027.4,025.6,000.0,035.7,029.2,25.6,0001.5,0021.78,0008.69,0007.05
2023-08-22 17:20:00,SystemResetWarning,0836.7,4.99,000.00,027.5,025.9,000.0,035.7,029.3,25.6,0001.9,0021.82,0008.68,0007.06
2023-08-22 17:21:00,SystemResetWarning,0836.6,4.99,000.00,027.5,024.9,000.0,035.6,029.1,25.6,0002.0,0022.57,0008.69,0007.08
2023-08-22 17:22:00,SystemResetWarning,0836.6,5.01,000.00,027.4,024.1,000.0,035.5,028.9,26.5,0001.9,0022.32,0008.73,0007.10
2023-08-22 17:23:00,SystemResetWarning,0836.6,5.01,000.00,027.4,024.4,000.0,035.5,028.9,27.4,0001.7,0021.45,0008.72,0007.11
2023-08-22 17:24:00,SystemResetWarning,0836.6,4.99,000.00,027.4,024.8,000.0,035.6,029.0,27.1,0001.8,0022.16,0008.79,0007.11
2023-08-22 17:25:00,SystemResetWarning,0836.6,5.00,000.00,027.4,025.2,000.0,035.6,029.1,26.9,0002.0,0022.78,0008.82,0007.12
2023-08-22 17:26:00,SystemResetWarning,0836.6,5.00,000.00,027.4,025.7,000.0,035.7,029.2,26.5,0002.1,0021.92,0008.80,0007.12
2023-08-22 17:27:00,SystemResetWarning,0836.7,5.00,000.00,027.5,026.0,000.0,035.7,029.4,25.5,0002.2,0021.79,0008.82,0007.11
2023-08-22 17:28:00,SystemResetWarning,0836.6,4.99,000.00,027.5,025.7,000.0,035.7,029.3,25.5,0002.1,0021.57,0008.80,0007.13
2023-08-22 17:29:00,SystemResetWarning,0836.7,5.00,000.00,027.5,024.4,000.0,035.6,028.9,25.5,0002.2,0021.09,0008.75,0007.15
2023-08-22 17:30:00,SystemResetWarning,0836.6,5.01,000.00,027.4,024.3,000.0,035.5,028.9,25.9,0002.5,0019.99,0008.75,0007.15
2023-08-22 17:31:00,SystemResetWarning,0836.6,5.01,000.00,027.4,024.7,000.0,035.6,029.0,26.3,0002.4,0019.48,0008.73,0007.16
2023-08-22 17:32:00,SystemResetWarning,0836.6,5.00,000.00,027.4,025.1,000.0,035.6,029.1,26.5,0002.2,0019.76,0008.73,0007.19
2023-08-22 17:33:00,SystemResetWarning,0836.6,4.99,000.00,027.4,025.5,000.0,035.7,029.2,26.5,0002.5,0018.91,0008.77,0007.19
2023-08-22 17:34:00,SystemResetWarning,0836.6,5.01,000.00,027.5,025.9,000.0,035.7,029.3,26.6,0002.8,0019.23,0008.77,0007.19
2023-08-22 17:35:00,SystemResetWarning,0836.6,4.99,000.00,027.5,025.5,000.0,035.7,029.3,26.6,0002.9,0018.45,0008.76,0007.18
2023-08-22 17:36:00,SystemResetWarning,0836.6,4.99,000.00,027.5,024.2,000.0,035.6,029.0,26.8,0002.9,0017.65,0008.73,0007.19
2023-08-22 17:37:00,SystemResetWarning,0836.6,5.02,000.00,027.4,024.2,000.0,035.5,028.9,27.2,0002.7,0017.40,0008.71,0007.20
2023-08-22 17:38:00,SystemResetWarning,0836.6,5.00,000.00,027.4,024.6,000.0,035.6,028.9,28.4,0002.6,0017.07,0008.68,0007.22
2023-08-22 17:39:00,SystemResetWarning,0836.6,5.00,000.00,027.4,025.0,000.0,035.6,029.1,28.5,0002.5,0016.96,0008.74,0007.23
2023-08-22 17:40:00,SystemResetWarning,0836.6,5.00,000.00,027.4,025.5,000.0,035.7,029.2,28.6,0002.5,0016.72,0008.89,0007.26
2023-08-22 17:41:00,SystemResetWarning,0836.6,5.00,000.00,027.5,025.8,000.0,035.7,029.3,28.9,0002.4,0017.00,0008.94,0007.30
2023-08-22 17:42:00,SystemResetWarning,0836.6,4.99,000.00,027.5,025.2,000.0,035.6,029.2,28.4,0002.4,0017.05,0008.98,0007.33
2023-08-22 17:43:00,SystemResetWarning,0836.5,5.00,000.00,027.4,024.0,000.0,035.6,028.8,28.4,0002.4,0016.71,0008.99,0007.33
2023-08-22 17:44:00,SystemResetWarning,0836.5,5.02,000.00,027.4,024.0,000.0,035.5,028.8,28.8,0002.2,0016.61,0008.94,0007.34
2023-08-22 17:45:00,SystemResetWarning,0836.5,4.99,000.00,027.3,024.4,000.0,035.5,028.8,29.0,0001.9,0016.19,0008.93,0007.36
2023-08-22 17:46:00,SystemResetWarning,0836.5,5.00,000.00,027.3,024.8,000.0,035.6,028.9,28.9,0002.0,0016.13,0008.94,0007.39
2023-08-22 17:47:00,SystemResetWarning,0836.5,5.01,000.00,027.4,025.3,000.0,035.6,029.1,29.2,0001.8,0016.91,0008.95,0007.41
2023-08-22 17:48:00,SystemResetWarning,0836.5,4.99,000.00,027.4,025.7,000.0,035.7,029.2,29.4,0001.9,0017.19,0009.04,0007.44
2023-08-22 17:49:00,SystemResetWarning,0836.5,5.00,000.00,027.5,026.1,000.0,035.7,029.3,28.5,0002.0,0017.42,0009.10,0007.45
2023-08-22 17:50:00,SystemResetWarning,0836.5,4.99,000.00,027.5,025.5,000.0,035.6,029.2,28.2,0001.9,0017.47,0009.11,0007.48
2023-08-22 17:51:00,SystemResetWarning,0836.5,4.99,000.00,027.4,024.3,000.0,035.6,028.9,28.9,0001.8,0017.61,0009.09,0007.51
2023-08-22 17:52:00,SystemResetWarning,0836.4,5.01,000.00,027.4,024.3,000.0,035.5,028.9,29.3,0001.5,0017.74,0009.11,0007.52
2023-08-22 17:53:00,SystemResetWarning,0836.4,5.02,000.00,027.4,024.6,000.0,035.6,028.9,29.7,0001.4,0018.29,0009.17,0007.53
2023-08-22 17:54:00,SystemResetWarning,0836.4,5.00,000.00,027.4,025.0,000.0,035.6,029.0,29.6,0001.5,0018.69,0009.23,0007.56
2023-08-22 17:55:00,SystemResetWarning,0836.4,5.00,000.00,027.4,025.5,000.0,035.7,029.2,28.9,0001.4,0020.14,0009.28,0007.58
2023-08-22 17:56:00,SystemResetWarning,0836.5,5.00,000.00,027.5,025.9,000.0,035.7,029.3,28.7,0001.5,0021.62,0009.35,0007.61
2023-08-22 17:57:00,SystemResetWarning,0836.4,4.99,000.00,027.5,025.9,000.0,035.7,029.3,28.2,0001.0,0022.03,0009.41,0007.64
2023-08-22 17:58:00,SystemResetWarning,0836.4,4.99,000.00,027.5,024.7,000.0,035.6,029.0,28.9,0000.8,0021.73,0009.46,0007.67
2023-08-22 17:59:00,SystemResetWarning,0836.4,5.02,000.00,027.4,024.1,000.0,035.5,028.8,28.0,0000.6,0021.60,0009.41,0007.66
